This is the latest recevied weather packets stored in our database for station/object KQ4DLB-13. If no packets are shown the sender has not sent any weather packets the latest 10 day(s).
| Time | Temp. | Humidity | Pressure | Rain* | Wind** | Luminosity | Snow |
|---|---|---|---|---|---|---|---|
| 1777233302 | 26.67° C | 43% | 988.1 hPa | 0 mm | - | 552 W/m² | - |
| 1777233002 | 27.22° C | 45% | 988 hPa | 0 mm | - | 440 W/m² | - |
| 1777232702 | 27.22° C | 45% | 988.2 hPa | 0 mm | - | 722 W/m² | - |
| 1777232402 | 27.78° C | 43% | 988.4 hPa | 0 mm | - | 827 W/m² | - |
| 1777232102 | 27.78° C | 42% | 988.5 hPa | 0 mm | - | 912 W/m² | - |
| 1777231802 | 27.22° C | 43% | 988.5 hPa | 0 mm | - | 946 W/m² | - |
| 1777231502 | 27.22° C | 43% | 988.5 hPa | 0 mm | - | 913 W/m² | - |
| 1777231202 | 27.22° C | 44% | 988.4 hPa | 0 mm | - | 928 W/m² | - |
| 1777230903 | 27.22° C | 44% | 988.4 hPa | 0 mm | - | 910 W/m² | - |
| 1777230602 | 27.22° C | 43% | 988.4 hPa | 0 mm | - | 888 W/m² | - |
| 1777230302 | 27.22° C | 44% | 988.5 hPa | 0 mm | - | 887 W/m² | - |
| 1777230002 | 27.22° C | 45% | 988.6 hPa | 0 mm | - | 968 W/m² | - |
| 1777229702 | 26.67° C | 44% | 988.6 hPa | 0 mm | - | 956 W/m² | - |
| 1777229403 | 26.67° C | 45% | 988.6 hPa | 0 mm | - | 916 W/m² | - |
| 1777229102 | 27.22° C | 43% | 988.7 hPa | 0 mm | - | 988 W/m² | - |
| 1777228802 | 26.67° C | 45% | 988.7 hPa | 0 mm | - | 952 W/m² | - |
| 1777228502 | 27.22° C | 44% | 988.7 hPa | 0 mm | - | 974 W/m² | - |
| 1777228202 | 27.22° C | 43% | 988.7 hPa | 0 mm | - | 973 W/m² | - |
| 1777227902 | 27.22° C | 45% | 988.7 hPa | 0 mm | - | 973 W/m² | - |
| 1777227602 | 26.67° C | 45% | 988.7 hPa | 0 mm | - | 978 W/m² | - |
| 1777227302 | 26.67° C | 44% | 988.8 hPa | 0 mm | - | 981 W/m² | - |
| 1777227002 | 26.67° C | 47% | 988.8 hPa | 0 mm | - | 992 W/m² | - |
| 1777226702 | 26.11° C | 47% | 988.9 hPa | 0 mm | - | 909 W/m² | - |
| 1777226402 | 26.11° C | 47% | 989 hPa | 0 mm | - | 989 W/m² | - |
| 1777226102 | 26.11° C | 47% | 989.1 hPa | 0 mm | - | 100 W/m² | - |
* Rain latest hour (hover to see other rain measurements)
** Current wind speed in m/s (hover to see current wind gust speed)